Williams, AZ

2:28 PM MST on January 19, 2017 (GMT -0700)
Grand Canyon National Park

Weather History for KGCN - December, 2011

Change the Weather History Date:

Saturday, December 24, 2011

  Actual Average Record
Temperature  
Mean Temperature 29 °F -  
Max Temperature 41 °F 41 °F 59 °F (1985)
Min Temperature 17 °F 12 °F -12 °F (1990)
Degree Days  
Heating Degree Days 36    
Moisture  
Dew Point 3 °F    
Average Humidity 38    
Maximum Humidity 62    
Minimum Humidity 17    
Precipitation  
Precipitation 0.00 in - - ()
Sea Level Pressure  
Sea Level Pressure 30.47 in    
Wind  
Wind Speed 6 mph (NE)    
Max Wind Speed 14 mph    
Max Gust Speed 22 mph    
Visibility 10 miles    
Events      
Averages and records for this station are not official NWS values.
T = Trace of Precipitation, MM = Missing Value Source: NWS Daily Summary

Daily Weather History Graph

Daily Weather History Graph

Search for Another Location

Airport or City:

Trip Planner

Search our weather history database for the weather conditions in past years. The results will help you decide how hot, cold, wet, or windy it might be!

Date:

Astronomy

Dec. 24, 2011 Rise Set
Actual Time 7:36 AM MST 5:19 PM MST
Civil Twilight 7:07 AM MST 5:48 PM MST
Nautical Twilight 6:35 AM MST 6:20 PM MST
Astronomical Twilight 6:04 AM MST 6:51 PM MST
Moon 7:28 AM MST (12/24) 5:36 PM MST (12/24)
Length of Visible Light 10h 40m
Length of Day
9h 43m
New Moon, 0% of the Moon is Illuminated
Dec 24
New Moon
Dec 31
First Quarter
Jan 9
Full
Jan 16
Last Quarter
Jan 23
New

Hourly Weather History & Observations

Time (MST) Temp. Windchill Dew Point Humidity Pressure Visibility Wind Dir Wind Speed Gust Speed Precip Events Conditions
12:54 AM 21.9 °F - 5.0 °F 48% 30.41 in 10.0 mi Calm Calm - N/A   Clear
1:54 AM 21.9 °F - 5.0 °F 48% 30.40 in 10.0 mi Calm Calm - N/A   Clear
2:54 AM 17.1 °F 11.7 °F 6.1 °F 62% 30.44 in 10.0 mi NE 3.5 mph - N/A   Clear
3:54 AM 21.0 °F 10.6 °F 5.0 °F 50% 30.43 in 10.0 mi NE 9.2 mph - N/A   Clear
4:54 AM 25.0 °F 18.1 °F 1.0 °F 36% 30.41 in 10.0 mi North 5.8 mph - N/A   Clear
5:54 AM 30.0 °F 23.2 °F -0.0 °F 28% 30.43 in 10.0 mi NNE 6.9 mph - N/A   Clear
6:54 AM 18.0 °F 4.8 °F 3.0 °F 52% 30.50 in 10.0 mi NE 12.7 mph - N/A   Clear
7:54 AM 17.1 °F 8.7 °F 3.0 °F 54% 30.55 in 10.0 mi NE 5.8 mph - N/A   Clear
8:54 AM 28.0 °F 21.7 °F 5.0 °F 38% 30.52 in 10.0 mi NNE 5.8 mph - N/A   Clear
9:54 AM 37.0 °F 31.6 °F 1.0 °F 22% 30.50 in 10.0 mi Variable 6.9 mph - N/A   Clear
10:54 AM 41.0 °F 33.5 °F -0.9 °F 17% 30.48 in 10.0 mi ENE 13.8 mph - N/A   Clear
11:54 AM 41.0 °F 33.5 °F -0.0 °F 18% 30.45 in 10.0 mi ENE 13.8 mph 21.9 mph N/A   Clear
12:54 PM 41.0 °F 34.7 °F 1.0 °F 19% 30.44 in 10.0 mi NE 10.4 mph - N/A   Clear
1:54 PM 41.0 °F 34.3 °F 1.0 °F 19% 30.43 in 10.0 mi ENE 11.5 mph - N/A   Clear
2:54 PM 41.0 °F 33.5 °F 1.9 °F 20% 30.45 in 10.0 mi ENE 13.8 mph 20.7 mph N/A   Clear
3:54 PM 39.0 °F 31.0 °F 1.9 °F 21% 30.45 in 10.0 mi NE 13.8 mph 20.7 mph N/A   Clear
4:54 PM 36.0 °F 28.0 °F 1.9 °F 24% 30.45 in 10.0 mi NE 11.5 mph - N/A   Clear
5:54 PM 34.0 °F 25.5 °F 1.9 °F 26% 30.46 in 10.0 mi NE 11.5 mph - N/A   Clear
6:54 PM 30.9 °F 22.8 °F 3.0 °F 31% 30.53 in 10.0 mi NE 9.2 mph - N/A   Clear
7:54 PM 24.1 °F 19.7 °F 7.0 °F 48% 30.57 in 10.0 mi NE 3.5 mph - N/A   Clear
8:54 PM 19.9 °F 10.1 °F 8.1 °F 60% 30.54 in 10.0 mi ENE 8.1 mph - N/A   Clear
9:54 PM 19.0 °F 10.0 °F 6.1 °F 57% 30.52 in 10.0 mi NE 6.9 mph - N/A   Clear
10:54 PM 19.0 °F 6.8 °F 3.9 °F 52% 30.51 in 10.0 mi NE 11.5 mph - N/A   Clear
11:54 PM 19.0 °F 13.9 °F 5.0 °F 54% 30.49 in 10.0 mi NE 3.5 mph - N/A   Clear